Home > Weather > Lörrach > Past weeks

Flag for Germany Past Weather in Lörrach, Baden-Württemberg, Germany — Yesterday and Last 2 Weeks

Now
63 °F

Thundershowers. Partly cloudy.


Feels Like: 63 °F
Forecast: 59 / 69 °F
Wind: 6 mph from North

Location: Bale-Mulhouse

Current Time: May 29, 2016 at 12:10:32 AM

Latest Report: May 28, 2016 at 11:30 PM


Visibility: N/A

Pressure: 29.80 "Hg

Humidity: 88%

Dew Point: 59 °F

Location of LörrachLocation

Past Weather in Lörrach — Graph

°F

Lörrach Temperature Yesterday

Maximum temperature yesterday: 77 °F (at 5:00 PM)
Minimum temperature yesterday: 63 °F (at 3:30 AM)
Average temperature yesterday: 69 °F

High & Low Weather Summary for the Past Weeks

 TemperatureHumidityPressure
High81 °F (May 27, 4:30 PM)100% (May 17, 5:00 AM)30.21 "Hg (May 17, 5:00 AM)
Low41 °F (May 16, 1:30 AM)37% (May 26, 5:30 PM)29.65 "Hg (May 13, 10:00 PM)
Average57 °F74%29.99 "Hg
* Reported May 13 10:00 PM — May 28 10:30 PM, Lörrach, Weather by CustomWeather, © 2016

Note: Actual official high and low records may vary slightly from our data, if they occured in-between our weather recording intervals... More about our weather records

Advertising

Lörrach Weather History for the Previous 24 Hours

Scroll right to see more
 ConditionsComfort  
Time TempWeatherWind HumidityBarometerVisibility
10:30 PM
Sat, May 28
64 °FThunderstorms. Passing clouds.10 mph88%29.77 "Hg2 mi
10:00 PM70 °FPartly sunny.1 mph73%29.77 "HgN/A
9:39 PM72 °FBroken clouds.3 mph65%29.77 "HgN/A
9:30 PM72 °FBroken clouds.2 mph65%29.77 "HgN/A
9:00 PM72 °FPartly sunny.1 mph65%29.77 "HgN/A
8:30 PM75 °FPartly sunny.3 mph54%29.77 "HgN/A
8:00 PM75 °FPartly sunny.3 mph54%29.77 "HgN/A
7:30 PM77 °FScattered clouds.3 mph51%29.77 "HgN/A
7:00 PM77 °FScattered clouds.5 mph47%29.77 "HgN/A
6:30 PM77 °FPassing clouds.5 mph47%29.80 "HgN/A
5:30 PM77 °FPassing clouds.3 mph47%29.80 "HgN/A
5:00 PM77 °FScattered clouds.3 mph51%29.83 "HgN/A
4:30 PM75 °FBroken clouds.3 mph54%29.83 "HgN/A
4:00 PM75 °FBroken clouds.3 mph54%29.86 "HgN/A
3:30 PM75 °FPassing clouds.3 mph54%29.86 "HgN/A
3:00 PM75 °FPassing clouds.2 mph57%29.86 "HgN/A
2:30 PM73 °FScattered clouds.7 mph57%29.89 "HgN/A
2:00 PM73 °FPartly sunny.3 mph61%29.89 "HgN/A
1:30 PM72 °FScattered clouds.5 mph61%29.92 "HgN/A
1:00 PM72 °FScattered clouds.3 mph69%29.92 "HgN/A
12:30 PM70 °FBroken clouds.3 mph69%29.92 "HgN/A
12:00 PM68 °FBroken clouds.7 mph73%29.92 "HgN/A
11:30 AM68 °FPartly sunny.5 mph78%29.92 "HgN/A
11:00 AM68 °FPartly sunny.5 mph78%29.92 "HgN/A
10:30 AM68 °FBroken clouds.5 mph78%29.95 "HgN/A
10:00 AM66 °FPartly sunny.5 mph78%29.95 "HgN/A
9:30 AM66 °FPartly sunny.6 mph83%29.92 "HgN/A
9:00 AM66 °FPartly sunny.7 mph78%29.92 "HgN/A
8:30 AM64 °FPartly sunny.7 mph83%29.95 "HgN/A
8:00 AM66 °FPartly sunny.3 mph78%29.95 "HgN/A
7:30 AM66 °FPartly sunny.5 mph83%29.95 "HgN/A
7:00 AM63 °FBroken clouds.7 mph88%29.92 "HgN/A
6:30 AM63 °FPartly cloudy.8 mph88%29.95 "HgN/A
6:00 AM63 °FPassing clouds.9 mph88%29.95 "HgN/A
5:30 AM63 °FPartly cloudy.8 mph88%29.95 "HgN/A
5:00 AM63 °FPartly cloudy.3 mph94%29.95 "HgN/A
4:30 AM63 °FPartly cloudy.2 mph94%29.98 "HgN/A
4:00 AM63 °FMostly cloudy.2 mph94%29.98 "HgN/A
3:30 AM63 °FLight rain. Overcast.2 mph94%29.95 "HgN/A
3:00 AM64 °FLight rain. Overcast.5 mph83%29.98 "HgN/A
2:30 AM64 °FThundershowers. Mostly cloudy.5 mph83%29.95 "HgN/A
2:00 AM64 °FMild.7 mph78%29.95 "HgN/A
1:30 AM64 °FMild.5 mph83%29.95 "HgN/A
1:00 AM64 °FClear.6 mph83%29.95 "Hg10 mi
12:30 AM64 °FPassing clouds.6 mph78%29.92 "HgN/A
12:00 AM64 °FPartly cloudy.6 mph78%29.92 "HgN/A
Weather by CustomWeather, © 2016

See weather overviewHow to use our weather pages